FW5381 Weather Reports


time (UTC)temp
F
wind
direction
speed
knots
gust
knots
rain 1hr
in
rain 24hr
in
rain mn
in
humidity
%
barometer
mb
20260506104019 37 0 0.0 0.9 0.00 0.00 0.00 88 1019.3
20260506103512 37 0 0.0 0.0 0.00 0.00 0.00 87 1019.4
20260506103039 37 0 0.0 0.0 0.00 0.00 0.00 87 1019.3
20260506102518 37 0 0.0 0.0 0.00 0.00 0.00 87 1019.3
20260506102011 37 0 0.0 0.0 0.00 0.00 0.00 87 1019.3
20260506101528 37 0 0.0 0.0 0.00 0.00 0.00 86 1019.4
20260506101011 38 0 0.0 0.0 0.00 0.00 0.00 86 1019.4
20260506100516 38 0 0.0 0.0 0.00 0.00 0.00 86 1019.4
20260506100030 38 0 0.0 0.0 0.00 0.00 0.00 86 1019.4
20260506095513 38 0 0.0 0.0 0.00 0.00 0.00 86 1019.4
20260506095014 38 0 0.0 0.0 0.00 0.00 0.00 86 1019.4
20260506094532 39 0 0.0 0.0 0.00 0.00 0.00 86 1019.4
20260506094012 39 0 0.0 0.0 0.00 0.00 0.00 85 1019.3
20260506093509 39 0 0.0 0.0 0.00 0.00 0.00 85 1019.2
20260506093032 39 0 0.0 0.0 0.00 0.00 0.00 86 1019.2
20260506092511 40 0 0.0 0.0 0.00 0.00 0.00 85 1019.2
20260506092010 40 0 0.0 0.0 0.00 0.00 0.00 85 1019.2
20260506091529 40 0 0.0 0.9 0.00 0.00 0.00 85 1019.1
20260506091012 40 0 0.0 0.9 0.00 0.00 0.00 85 1019.2
20260506090513 41 0 0.0 1.7 0.00 0.00 0.00 84 1019.2
20260506090030 41 0 0.0 1.7 0.00 0.00 0.00 85 1019.3
20260506085512 41 327 0.0 1.7 0.00 0.00 0.00 84 1019.2
20260506085011 41 0 0.0 0.9 0.00 0.00 0.00 84 1019.2
20260506084606 42 0 0.0 0.9 0.00 0.00 0.00 84 1019.3
20260506084017 42 0 0.0 0.9 0.00 0.00 0.00 84 1019.2
20260506083512 42 0 0.0 0.0 0.00 0.00 0.00 84 1019.2
20260506083036 42 0 0.0 0.0 0.00 0.00 0.00 84 1019.0
20260506082511 43 0 0.0 0.9 0.00 0.00 0.00 84 1019.0
20260506082011 43 0 0.0 0.9 0.00 0.00 0.00 83 1019.1
20260506081542 43 0 0.0 0.0 0.00 0.00 0.00 83 1019.0
20260506081011 43 0 0.0 1.7 0.00 0.00 0.00 83 1019.0
20260506080511 44 0 0.0 1.7 0.00 0.00 0.00 82 1019.1
20260506073512 46 0 0.0 0.9 0.00 0.00 0.00 81 1018.4
20260506073031 46 0 0.0 0.9 0.00 0.00 0.00 81 1018.3
20260506072512 46 0 0.0 0.9 0.00 0.00 0.00 81 1018.3
20260506072013 46 327 0.0 1.7 0.00 0.00 0.00 80 1018.3
20260506071528 47 0 0.0 1.7 0.00 0.00 0.00 80 1018.3
20260506071010 47 327 0.0 1.7 0.00 0.00 0.00 80 1018.3
20260506070510 47 0 0.0 1.7 0.00 0.00 0.00 80 1018.3
20260506062512 50 0 0.0 0.0 0.00 0.00 0.00 77 1017.9
20260506062011 51 0 0.0 0.9 0.00 0.00 0.00 76 1017.9
20260506061531 51 0 0.0 0.9 0.00 0.00 0.00 76 1017.7
20260506061012 51 0 0.0 1.7 0.00 0.00 0.00 75 1017.7
20260506060510 51 0 0.0 1.7 0.00 0.00 0.00 75 1017.8
20260506051013 56 0 0.0 1.7 0.00 0.00 0.00 68 1017.2
20260506050511 56 0 0.0 1.7 0.00 0.00 0.00 68 1017.2
20260506045014 58 328 0.0 2.6 0.00 0.00 0.00 64 1017.1
20260506044537 58 0 0.0 3.5 0.00 0.00 0.00 65 1017.1
20260506044009 58 327 0.9 3.5 0.00 0.00 0.00 64 1017.1
20260506043511 59 0 0.0 1.7 0.00 0.00 0.00 64 1017.2
20260506043030 59 0 0.0 3.5 0.00 0.00 0.00 62 1017.1
20260506042512 60 334 0.0 3.5 0.00 0.00 0.00 63 1017.1
20260506042011 60 299 0.9 3.5 0.00 0.00 0.00 62 1017.1
20260506041530 60 352 0.0 3.5 0.00 0.00 0.00 60 1017.1
20260506041013 61 22 0.0 6.1 0.00 0.00 0.00 59 1017.0
20260506040512 61 300 2.6 6.1 0.00 0.00 0.00 59 1016.9
20260506040035 61 299 0.9 7.8 0.00 0.00 0.00 56 1016.8
20260506035513 62 311 1.7 7.8 0.00 0.00 0.00 54 1016.7
20260506035013 62 340 1.7 7.8 0.00 0.00 0.00 52 1016.7
20260506034532 62 286 1.7 6.1 0.00 0.00 0.00 48 1016.6
20260506034014 63 282 1.7 5.2 0.00 0.00 0.00 45 1016.6
20260506033511 63 284 1.7 5.2 0.00 0.00 0.00 42 1016.4
20260506033031 64 269 0.9 5.2 0.00 0.00 0.00 41 1016.5
20260506032510 64 304 1.7 5.2 0.00 0.00 0.00 39 1016.5
20260506032011 65 0 1.7 7.0 0.00 0.00 0.00 39 1016.2
20260506031539 65 303 1.7 7.0 0.00 0.00 0.00 38 1016.4
20260506031011 66 300 0.9 7.0 0.00 0.00 0.00 37 1016.4
20260506030512 66 300 2.6 6.1 0.00 0.00 0.00 36 1016.3
20260506030029 66 256 0.9 5.2 0.00 0.00 0.00 37 1016.2
20260506025510 67 300 1.7 7.0 0.00 0.00 0.00 35 1016.2
20260506025012 67 284 0.9 7.0 0.00 0.00 0.00 36 1016.2
20260506024531 67 267 1.7 7.0 0.00 0.00 0.00 36 1016.0
20260506024010 67 259 1.7 6.1 0.00 0.00 0.00 36 1015.9
20260506023512 67 0 1.7 4.3 0.00 0.00 0.00 36 1015.8
20260506023051 67 336 1.7 3.5 0.00 0.00 0.00 37 1015.8
20260506022513 68 244 0.0 2.6 0.00 0.00 0.00 40 1015.8
20260506022017 68 244 0.9 2.6 0.00 0.00 0.00 40 1015.8
20260506021557 68 294 0.9 4.3 0.00 0.00 0.00 40 1015.7
20260506021016 68 211 0.0 4.3 0.00 0.00 0.00 40 1015.7
20260506020512 68 313 0.9 5.2 0.00 0.00 0.00 39 1015.6
20260506020031 68 344 0.9 6.1 0.00 0.00 0.00 39 1015.7
20260506015512 68 306 2.6 6.1 0.00 0.00 0.00 38 1015.6
20260506015012 68 258 1.7 7.8 0.00 0.00 0.00 38 1015.7
20260506014529 68 292 1.7 9.6 0.00 0.00 0.00 38 1015.5
20260506014013 68 315 2.6 9.6 0.00 0.00 0.00 38 1015.5
20260506013513 69 342 4.3 9.6 0.00 0.00 0.00 38 1015.4
20260506013033 69 303 1.7 9.6 0.00 0.00 0.00 40 1015.5
20260506012512 69 350 3.5 9.6 0.00 0.00 0.00 40 1015.2
20260506012012 69 309 0.9 7.8 0.00 0.00 0.00 42 1015.4
20260506011530 69 333 2.6 8.7 0.00 0.00 0.00 42 1015.2
20260506011009 69 306 1.7 8.7 0.00 0.00 0.00 42 1015.2
20260506010513 69 355 1.7 8.7 0.00 0.00 0.00 41 1015.2
20260506010035 69 331 3.5 9.6 0.00 0.00 0.00 41 1015.2
20260506005513 69 41 1.7 9.6 0.00 0.00 0.00 41 1015.1
20260506005014 69 323 2.6 10.4 0.00 0.00 0.00 41 1015.1
20260506004530 69 41 2.6 10.4 0.00 0.00 0.00 40 1015.2
20260506004013 70 290 3.5 13.0 0.00 0.00 0.00 40 1015.1
20260506003517 70 309 4.3 13.0 0.00 0.00 0.00 37 1014.9
20260506003032 71 57 2.6 10.4 0.00 0.00 0.00 36 1014.7
20260506002512 71 254 1.7 8.7 0.00 0.00 0.00 37 1014.9
20260506002012 71 311 3.5 8.7 0.00 0.00 0.00 38 1014.8
20260506001531 71 300 1.7 5.2 0.00 0.00 0.00 38 1014.7
20260506001013 71 314 1.7 7.0 0.00 0.00 0.00 38 1014.6
20260506000512 71 325 0.9 10.4 0.00 0.00 0.00 38 1014.8
20260506000033 72 15 4.3 10.4 0.00 0.00 0.00 36 1014.7
20260505235513 72 341 0.9 7.8 0.00 0.00 0.00 35 1014.7
20260505235013 73 0 1.7 8.7 0.00 0.00 0.00 35 1014.6
20260505234530 73 36 1.7 8.7 0.00 0.00 0.00 34 1014.7
20260505234016 74 41 2.6 7.0 0.00 0.00 0.00 34 1014.7
20260505233514 73 15 1.7 6.1 0.00 0.00 0.00 37 1014.6
20260505233030 73 292 1.7 4.3 0.00 0.00 0.00 38 1014.6
20260505232512 72 292 1.7 6.1 0.00 0.00 0.00 38 1014.7
20260505232017 72 310 1.7 6.1 0.00 0.00 0.00 38 1014.7
20260505231547 73 278 2.6 6.1 0.00 0.00 0.00 36 1014.7
20260505231016 73 254 0.9 4.3 0.00 0.00 0.00 37 1014.6
20260505230514 74 217 1.7 7.0 0.00 0.00 0.00 38 1014.5
20260505230030 74 10 1.7 8.7 0.00 0.00 0.00 36 1014.6
20260505225513 74 236 4.3 8.7 0.00 0.00 0.00 37 1014.6
20260505225012 74 5 1.7 6.1 0.00 0.00 0.00 37 1014.6
20260505224532 74 0 1.7 8.7 0.00 0.00 0.00 37 1014.7
20260505224011 74 248 0.9 8.7 0.00 0.00 0.00 37 1014.8
20260505223513 74 0 1.7 8.7 0.00 0.00 0.00 37 1014.7
20260505223031 75 285 2.6 8.7 0.00 0.00 0.00 36 1014.8
20260505222517 76 289 3.5 10.4 0.00 0.00 0.00 33 1014.6
20260505222013 76 286 4.3 11.3 0.00 0.00 0.00 36 1014.6
20260505221530 75 269 5.2 11.3 0.00 0.00 0.00 36 1014.8
20260505221012 74 312 5.2 11.3 0.00 0.00 0.00 37 1014.8
20260505220515 73 274 1.7 4.3 0.00 0.00 0.00 35 1014.6
20260505220032 73 355 2.6 4.3 0.00 0.00 0.00 36 1014.8
20260505215512 72 320 1.7 4.3 0.00 0.00 0.00 36 1014.7
20260505215014 72 322 0.9 7.0 0.00 0.00 0.00 36 1014.9
20260505214540 72 321 0.9 14.8 0.00 0.00 0.00 37 1014.9
20260505214018 72 322 2.6 14.8 0.00 0.00 0.00 35 1014.8
20260505213512 73 33 6.1 14.8 0.00 0.00 0.00 35 1014.7
20260505213037 73 252 2.6 6.1 0.00 0.00 0.00 35 1014.8
20260505212514 73 275 1.7 5.2 0.00 0.00 0.00 35 1014.9
20260505212011 73 294 1.7 7.8 0.00 0.00 0.00 36 1014.8
20260505211532 73 115 3.5 8.7 0.00 0.00 0.00 35 1014.8
20260505211013 74 17 0.9 11.3 0.00 0.00 0.00 34 1014.8
20260505210513 75 157 1.7 11.3 0.00 0.00 0.00 34 1014.8
20260505210030 75 90 4.3 11.3 0.00 0.00 0.00 34 1014.9
20260505205518 75 360 2.6 9.6 0.00 0.00 0.00 34 1014.8
20260505205011 74 60 3.5 9.6 0.00 0.00 0.00 34 1014.8
20260505204530 74 68 3.5 8.7 0.00 0.00 0.00 34 1014.8
20260505204014 74 54 3.5 9.6 0.00 0.00 0.00 33 1014.8
20260505203514 74 321 1.7 10.4 0.00 0.00 0.00 34 1014.6
20260505203050 74 315 3.5 10.4 0.00 0.00 0.00 33 1014.8
20260505202514 75 139 2.6 11.3 0.00 0.00 0.00 32 1014.8
20260505202012 74 312 2.6 11.3 0.00 0.00 0.00 33 1014.8
20260505201533 73 11 2.6 10.4 0.00 0.00 0.00 34 1014.9
20260505201016 73 88 3.5 9.6 0.00 0.00 0.00 35 1014.9
20260505200512 73 355 3.5 9.6 0.00 0.00 0.00 34 1014.8
20260505200029 73 124 4.3 9.6 0.00 0.00 0.00 34 1014.8
20260505195515 73 65 2.6 9.6 0.00 0.00 0.00 36 1014.8
20260505195014 72 314 1.7 7.8 0.00 0.00 0.00 37 1015.0
20260505194532 72 5 2.6 8.7 0.00 0.00 0.00 35 1014.9
20260505194015 72 57 2.6 9.6 0.00 0.00 0.00 35 1015.1
20260505193512 73 56 4.3 10.4 0.00 0.00 0.00 34 1015.1
20260505193034 73 138 2.6 10.4 0.00 0.00 0.00 35 1014.9
20260505192513 73 5 3.5 10.4 0.00 0.00 0.00 34 1015.0
20260505192014 73 105 2.6 10.4 0.00 0.00 0.00 35 1015.2
20260505191532 73 184 2.6 10.4 0.00 0.00 0.00 34 1015.1
20260505191013 73 355 3.5 10.4 0.00 0.00 0.00 36 1014.9
20260505190513 73 20 2.6 7.0 0.00 0.00 0.00 36 1015.0
20260505190034 72 352 1.7 8.7 0.00 0.00 0.00 36 1015.1
20260505185518 72 109 1.7 8.7 0.00 0.00 0.00 37 1015.1
20260505185012 72 334 3.5 8.7 0.00 0.00 0.00 36 1015.2
20260505184535 72 27 2.6 8.7 0.00 0.00 0.00 37 1015.0
20260505184012 71 114 1.7 6.1 0.00 0.00 0.00 37 1014.9
20260505183512 71 138 1.7 7.0 0.00 0.00 0.00 38 1015.0
20260505183031 70 171 0.9 7.0 0.00 0.00 0.00 40 1014.9
20260505182513 70 38 2.6 7.0 0.00 0.00 0.00 40 1015.0
20260505182012 70 0 0.9 4.3 0.00 0.00 0.00 40 1015.0
20260505181538 70 0 0.9 4.3 0.00 0.00 0.00 40 1015.2
20260505181013 69 108 0.0 6.1 0.00 0.00 0.00 42 1015.0
20260505180511 69 120 1.7 6.1 0.00 0.00 0.00 40 1015.1
20260505180033 68 112 0.9 6.1 0.00 0.00 0.00 41 1015.1
20260505175513 68 342 0.9 6.1 0.00 0.00 0.00 41 1015.1
20260505175011 68 40 2.6 6.1 0.00 0.00 0.00 42 1015.2
20260505174539 67 301 0.9 5.2 0.00 0.00 0.00 43 1015.2
20260505174014 67 307 0.9 5.2 0.00 0.00 0.00 44 1015.2
20260505173513 67 61 1.7 5.2 0.00 0.00 0.00 43 1015.3
20260505173032 66 69 0.9 4.3 0.00 0.00 0.00 45 1015.3
20260505172515 65 306 0.0 3.5 0.00 0.00 0.00 45 1015.2
20260505172013 64 96 0.9 6.1 0.00 0.00 0.00 46 1015.2
20260505171529 64 75 0.9 6.1 0.00 0.00 0.00 44 1015.4
20260505171013 63 107 1.7 6.1 0.00 0.00 0.00 45 1015.3
20260505170513 63 0 1.7 5.2 0.00 0.00 0.00 48 1015.2
20260505170036 63 100 0.0 3.5 0.00 0.00 0.00 48 1015.2
20260505165513 62 0 0.9 3.5 0.00 0.00 0.00 49 1015.2
20260505165013 61 34 0.9 2.6 0.00 0.00 0.00 50 1015.1
20260505164532 61 9 0.9 2.6 0.00 0.00 0.00 53 1015.0
20260505164012 60 0 0.0 2.6 0.00 0.00 0.00 57 1015.1
20260505163514 59 10 0.9 3.5 0.00 0.00 0.00 58 1015.1
20260505163035 59 10 0.9 3.5 0.00 0.00 0.00 60 1015.1
20260505162514 59 5 0.9 2.6 0.00 0.00 0.00 60 1015.2
20260505162013 58 88 0.9 2.6 0.00 0.00 0.00 62 1015.1
20260505161530 58 0 0.0 1.7 0.00 0.00 0.00 63 1015.2
20260505161011 57 123 0.0 2.6 0.00 0.00 0.00 63 1015.3
20260505160511 57 170 0.9 2.6 0.00 0.00 0.00 66 1015.2
20260505153030 51 142 1.7 3.5 0.00 0.00 0.00 77 1015.2
20260505152512 49 330 0.0 1.7 0.00 0.00 0.00 80 1015.3
20260505152017 48 19 0.0 1.7 0.00 0.00 0.00 83 1015.1
20260505151545 46 20 0.0 1.7 0.00 0.00 0.00 84 1015.1
20260505151013 45 0 0.0 0.9 0.00 0.00 0.00 87 1015.1
20260505150517 43 0 0.0 0.0 0.00 0.00 0.00 90 1015.0
20260505140514 32 0 0.0 0.9 0.00 0.00 0.00 90 1015.0
20260505125014 31 0 0.0 0.0 0.00 0.00 0.00 89 1014.5
20260505124529 31 0 0.0 0.0 0.00 0.00 0.00 89 1014.5
20260505124015 31 0 0.0 0.0 0.00 0.00 0.00 89 1014.4
20260505123514 31 0 0.0 0.0 0.00 0.00 0.00 89 1014.5
20260505123031 31 0 0.0 0.0 0.00 0.00 0.00 89 1014.5
20260505122514 32 0 0.0 0.0 0.00 0.00 0.00 89 1014.4
20260505122014 32 0 0.0 0.0 0.00 0.00 0.00 88 1014.3
20260505121532 32 0 0.0 0.0 0.00 0.00 0.00 89 1014.5
20260505121012 32 0 0.0 0.0 0.00 0.00 0.00 88 1014.3
20260505120517 32 0 0.0 0.0 0.00 0.00 0.00 88 1014.3
20260505120030 32 0 0.0 0.0 0.00 0.00 0.00 88 1014.2
20260505115515 32 0 0.0 0.0 0.00 0.00 0.00 88 1014.3
20260505115012 33 0 0.0 0.0 0.00 0.00 0.00 89 1014.3
20260505114535 33 0 0.0 0.0 0.00 0.00 0.00 88 1014.1
20260505114016 33 0 0.0 0.0 0.00 0.00 0.00 88 1014.0
20260505113513 33 0 0.0 0.0 0.00 0.00 0.00 88 1014.2
20260505113030 33 0 0.0 0.0 0.00 0.00 0.00 88 1014.2
20260505112516 33 0 0.0 0.0 0.00 0.00 0.00 88 1014.1
20260505112012 33 0 0.0 0.0 0.00 0.00 0.00 88 1014.1
20260505111532 34 0 0.0 0.0 0.00 0.00 0.00 88 1014.0
20260505111013 34 0 0.0 0.0 0.00 0.00 0.00 88 1014.0
20260505110514 34 0 0.0 0.0 0.00 0.00 0.00 88 1014.0